Location: Spruce Knob
(38.6995°N, 79.5330°W)
Time: 20:56:42
(UTC-04:00)

A-11 Canister half - Pass Details

Date: 02 February 2022
Orbit: 1513 x 1686 km, 47.2° (Epoch: 26 May)

Event Time Altitude Azimuth Distance (km) Brightness Sun altitude
Rises 17:09:27 0° 274° (W) 4,787 12.8 4.8°
Reaches altitude 10° 17:12:44 10° 280° (W) 3,778 12.1 4.3°
Maximum altitude 17:21:58 51° 355° (N) 1,867 9.4 2.6°
Drops below altitude 10° 17:30:58 10° 70° (ENE) 3,680 10.3 1.0°
Sets 17:34:08 0° 76° (ENE) 4,655 10.8 0.4°
